Weather in Famagusta

Cyprus     35°06′34″N   33°57′07″E
temp.,
°C
wind,
m/s
gust,
m/s
humid.,
%
clouds,
%
prec.,
mm/h
press.,
hPa
HPBL,
m
26 february, fri
fri2623:00+15nne33590 0.0 1022406
02:00+15nne66640 0.0 1021365
05:00+14n56630 0.0 1021351
08:00+15n67710 0.0 1022487
11:00+16nne55630 0.0 1022520
14:00+16ne55610 0.0 1020467
17:00+16ne55560 0.0 1020339
20:00+15n22470 0.0 1020248
27 february, sat
sat2723:00+14nnw33520 0.0 1020205
02:00+13nnw33560 0.0 1019203
05:00+13nnw23600 0.0 1018260
08:00+14nnw33640 0.0 1018284
11:00+16nne23500 0.0 1018673
14:00+17ene22500 0.0 1016534
17:00+16s12570 0.0 1016395
20:00+15sw12600 0.0 1016307
28 february, sun
sun2823:00+15sse11620 0.0 1016381
02:00+15n22670 0.0 1016204
05:00+14n11680 0.0 1015261
08:00+15n11660 0.0 1015265
11:00+16ese22630 0.0 1016693
14:00+17sse33646 0.0 1016877
17:00+16sw44661 0.0 1015506
20:00+16sw34700 0.0 1016471
1 march, mon
mon123:00+15nw11740 0.0 1017203
02:00+14nnw44774 0.3 1016191
05:00+14wnw34781 0.3 1015135
08:00+14w34740 0.4 1016224
11:00+16wsw346833 1.4 1016864
14:00+15n446746 3.3 1015805
17:00+12n111284100 1.5 1015602
20:00+12nnw567984 1.6 1015344
2 march, tue
tue223:00+13nnw686748 0.0 1016444
02:00+13nnw796024 0.0 1016589
05:00+12nnw811560 0.0 1016526
08:00+12nnw912510 0.0 1017729
11:00+13nnw89480 0.0 10191402
14:00+14nnw88460 0.0 10181577
17:00+14nnw810450 0.0 10181213
20:00+13nnw910478 0.0 1019767